Iowa Falls, IA

5:53 AM CST on December 12, 2019 (GMT -0600)
Iowa Falls Municipal

Weather History for KIFA - October, 2019

Change the Weather History Date:

Sunday, October 27, 2019

  Actual Average Record
Temperature  
Mean Temperature 38 °F -  
Max Temperature 47 °F 58 °F 81 °F (1966)
Min Temperature 30 °F 37 °F 18 °F (1957)
Degree Days  
Heating Degree Days 27    
Moisture  
Dew Point 31 °F    
Average Humidity 74    
Maximum Humidity 88    
Minimum Humidity 58    
Precipitation  
Precipitation 0.00 in - - ()
Sea Level Pressure  
Sea Level Pressure 29.92 in    
Wind  
Wind Speed 6 mph ()    
Max Wind Speed 17 mph    
Max Gust Speed 23 mph    
Visibility 9.7 miles    
Events      
Averages and records for this station are not official NWS values.
T = Trace of Precipitation, MM = Missing Value Source: Averaged Metar Reports

Daily Weather History Graph

Daily Weather History Graph

Search for Another Location

Airport or City:

Astronomy

Oct. 27, 2019 Rise Set
Actual Time 7:40 AM CDT 6:13 PM CDT
Civil Twilight 7:11 AM CDT 6:42 PM CDT
Nautical Twilight 6:38 AM CDT 7:14 PM CDT
Astronomical Twilight 6:05 AM CDT 7:47 PM CDT
Moon 6:47 AM CDT (10/27) 6:24 PM CDT (10/27)
Length of Visible Light 11h 30m
Length of Day
10h 32m
Waning Crescent, 0% of the Moon is Illuminated
Oct 27
Waning Crescent
Oct 27
New
Nov 4
First Quarter
Nov 12
Full
Nov 19
Last Quarter

Hourly Weather History & Observations

Time (CDT) Temp. Windchill Dew Point Humidity Pressure Visibility Wind Dir Wind Speed Gust Speed Precip Events Conditions
12:15 AM 31.1 °F - 26.4 °F 83% 29.73 in 10.0 mi Calm Calm - N/A   Clear
12:35 AM 31.8 °F - 26.6 °F 81% 29.73 in 10.0 mi Calm Calm - N/A   Clear
12:55 AM 31.8 °F - 26.6 °F 81% 29.73 in 10.0 mi Calm Calm - N/A   Clear
1:15 AM 32.0 °F - 27.7 °F 84% 29.73 in 10.0 mi Calm Calm - N/A   Clear
1:35 AM 30.9 °F - 26.1 °F 82% 29.74 in 10.0 mi Calm Calm - N/A   Clear
1:55 AM 32.0 °F - 27.1 °F 82% 29.74 in 10.0 mi Calm Calm - N/A   Clear
2:15 AM 31.3 °F - 26.4 °F 82% 29.74 in 10.0 mi Calm Calm - N/A   Clear
2:35 AM 31.6 °F 27.0 °F 27.0 °F 83% 29.74 in 10.0 mi SE 4.6 mph - N/A   Clear
2:55 AM 31.8 °F - 27.5 °F 84% 29.74 in 10.0 mi Calm Calm - N/A   Clear
3:15 AM 32.9 °F 28.5 °F 29.1 °F 86% 29.74 in 7.0 mi SSE 4.6 mph - N/A   Clear
3:35 AM 32.9 °F 29.8 °F 29.5 °F 87% 29.75 in 10.0 mi SSW 3.5 mph - N/A   Clear
3:55 AM 32.9 °F 27.5 °F 29.5 °F 87% 29.76 in 10.0 mi SSW 5.8 mph - N/A   Clear
4:15 AM 34.3 °F - 30.4 °F 85% 29.76 in 10.0 mi Calm Calm - N/A   Clear
4:35 AM 34.0 °F - 29.8 °F 85% 29.76 in 10.0 mi Calm Calm - N/A   Clear
4:55 AM 30.9 °F - 26.2 °F 83% 29.78 in 7.0 mi Calm Calm - N/A   Clear
5:15 AM 30.2 °F 20.2 °F 26.1 °F 85% 29.80 in 7.0 mi WNW 12.7 mph - N/A   Clear
5:35 AM 33.3 °F 30.2 °F 29.7 °F 87% 29.80 in 7.0 mi WNW 3.5 mph - N/A   Clear
5:55 AM 33.1 °F 30.0 °F 29.5 °F 87% 29.81 in 7.0 mi WNW 3.5 mph - N/A   Clear
6:15 AM 33.4 °F 28.1 °F 30.2 °F 88% 29.81 in 7.0 mi NW 5.8 mph - N/A   Clear
6:35 AM 35.8 °F 29.4 °F 32.0 °F 86% 29.82 in 10.0 mi NNW 8.1 mph - N/A   Clear
6:55 AM 36.0 °F 29.0 °F 32.0 °F 86% 29.82 in 10.0 mi NNW 9.2 mph - N/A   Clear
7:15 AM 36.1 °F 30.6 °F 32.0 °F 85% 29.83 in 10.0 mi NNW 6.9 mph - N/A   Clear
7:35 AM 35.6 °F 30.7 °F 31.6 °F 85% 29.84 in 10.0 mi NW 5.8 mph - N/A   Clear
7:55 AM 34.2 °F 29.0 °F 30.4 °F 86% 29.86 in 10.0 mi WNW 5.8 mph - N/A   Clear
8:15 AM 34.2 °F 30.0 °F 30.7 °F 87% 29.87 in 10.0 mi WNW 4.6 mph - N/A   Clear
8:35 AM 35.2 °F 30.3 °F 31.6 °F 87% 29.88 in 7.0 mi WNW 5.8 mph - N/A   Clear
8:55 AM 37.0 °F 31.0 °F 32.9 °F 85% 29.89 in 10.0 mi WNW 8.1 mph - N/A   Clear
9:15 AM 38.7 °F 31.8 °F 34.0 °F 83% 29.92 in 10.0 mi WNW 10.4 mph - N/A   Clear
9:35 AM 39.6 °F 32.5 °F 34.5 °F 82% 29.93 in 10.0 mi WNW 11.5 mph - N/A   Clear
9:55 AM 41.4 °F 33.6 °F 35.4 °F 79% 29.93 in 10.0 mi NW 15.0 mph - N/A   Mostly Cloudy
10:15 AM 41.9 °F 34.3 °F 34.7 °F 76% 29.93 in 10.0 mi NW 15.0 mph 23.0 mph N/A   Overcast
10:35 AM 43.0 °F 36.0 °F 35.4 °F 75% 29.94 in 10.0 mi NW 13.8 mph - N/A   Overcast
10:55 AM 43.7 °F 36.6 °F 35.6 °F 73% 29.94 in 10.0 mi NW 15.0 mph 20.7 mph N/A   Overcast
11:15 AM 44.2 °F 39.2 °F 35.6 °F 72% 29.95 in 10.0 mi NW 9.2 mph - N/A   Overcast
11:35 AM 44.8 °F 38.7 °F 35.4 °F 70% 29.95 in 10.0 mi NW 12.7 mph 19.6 mph N/A   Overcast
11:55 AM 45.3 °F 39.0 °F 35.6 °F 69% 29.95 in 10.0 mi NW 13.8 mph - N/A   Overcast
12:15 PM 45.7 °F 39.5 °F 35.6 °F 68% 29.96 in 10.0 mi NW 13.8 mph 17.3 mph N/A   Overcast
12:35 PM 46.4 °F 40.4 °F 35.4 °F 66% 29.96 in 10.0 mi NW 13.8 mph - N/A   Overcast
12:55 PM 46.4 °F 41.1 °F 35.2 °F 65% 29.96 in 10.0 mi NW 11.5 mph - N/A   Overcast
1:15 PM 46.4 °F 40.7 °F 35.4 °F 66% 29.96 in 10.0 mi NW 12.7 mph 17.3 mph N/A   Overcast
1:35 PM 46.0 °F 40.6 °F 35.4 °F 66% 29.97 in 10.0 mi WNW 11.5 mph - N/A   Overcast
1:55 PM 46.4 °F 40.7 °F 35.4 °F 66% 29.97 in 10.0 mi NW 12.7 mph 18.4 mph N/A   Overcast
2:15 PM 46.4 °F 40.7 °F 35.1 °F 65% 29.97 in 10.0 mi WNW 12.7 mph - N/A   Overcast
2:35 PM 46.9 °F - 34.7 °F 62% 29.97 in 10.0 mi WNW 13.8 mph - N/A   Overcast
2:55 PM 46.8 °F - 34.2 °F 62% 29.97 in 10.0 mi NW 15.0 mph - N/A   Overcast
3:15 PM 46.8 °F - 34.3 °F 62% 29.98 in 10.0 mi WNW 16.1 mph - N/A   Overcast
3:35 PM 46.4 °F 39.8 °F 34.0 °F 62% 29.99 in 10.0 mi NW 16.1 mph - N/A   Overcast
3:55 PM 46.0 °F 39.6 °F 33.8 °F 62% 30.00 in 10.0 mi WNW 15.0 mph - N/A   Overcast
4:15 PM 45.7 °F 38.6 °F 32.9 °F 61% 30.00 in 10.0 mi NW 17.3 mph 20.7 mph N/A   Overcast
4:35 PM 45.5 °F 39.2 °F 32.0 °F 59% 30.00 in 10.0 mi NW 13.8 mph 19.6 mph N/A   Overcast
4:55 PM 45.9 °F 40.4 °F 32.0 °F 58% 30.00 in 10.0 mi NW 11.5 mph - N/A   Overcast
5:15 PM 45.5 °F 39.9 °F 31.6 °F 58% 30.00 in 10.0 mi NNW 11.5 mph 18.4 mph N/A   Overcast
5:35 PM 45.0 °F 39.3 °F 31.5 °F 59% 30.01 in 10.0 mi NW 11.5 mph 17.3 mph N/A   Overcast
5:55 PM 44.4 °F 38.2 °F 30.9 °F 59% 30.00 in 10.0 mi NNW 12.7 mph 16.1 mph N/A   Overcast
6:15 PM 43.5 °F 37.5 °F 30.6 °F 60% 30.01 in 10.0 mi NNW 11.5 mph - N/A   Overcast
6:55 PM 42.8 °F 39.3 °F 30.9 °F 63% 30.03 in 10.0 mi NW 5.8 mph - N/A   Overcast
7:15 PM 42.8 °F 37.5 °F 30.7 °F 62% 30.03 in 10.0 mi NW 9.2 mph - N/A   Overcast
7:35 PM 42.6 °F 38.4 °F 30.6 °F 62% 30.04 in 10.0 mi NW 6.9 mph - N/A   Overcast
7:55 PM 42.3 °F 37.9 °F 30.7 °F 64% 30.04 in 10.0 mi NW 6.9 mph - N/A   Overcast
8:15 PM 42.3 °F 37.3 °F 30.4 °F 63% 30.04 in 10.0 mi NW 8.1 mph - N/A   Overcast
8:55 PM 41.9 °F 38.2 °F 30.2 °F 63% 30.06 in 10.0 mi NW 5.8 mph - N/A   Overcast
9:15 PM 41.4 °F 34.3 °F 31.6 °F 68% 30.07 in 10.0 mi NW 12.7 mph 17.3 mph N/A   Overcast
9:35 PM 40.3 °F 32.6 °F 31.3 °F 70% 30.08 in 10.0 mi NW 13.8 mph 18.4 mph N/A   Overcast
9:55 PM 39.4 °F 31.8 °F 31.1 °F 72% 30.09 in 10.0 mi NW 12.7 mph - N/A   Overcast
10:15 PM 39.2 °F 32.0 °F 30.2 °F 70% 30.10 in 10.0 mi NW 11.5 mph 20.7 mph N/A   Overcast
10:35 PM 39.2 °F 32.0 °F 30.2 °F 70% 30.10 in 10.0 mi NW 11.5 mph - N/A   Overcast
10:55 PM 38.7 °F 31.8 °F 30.0 °F 71% 30.10 in 10.0 mi NW 10.4 mph - N/A   Overcast
11:15 PM 38.3 °F 31.4 °F 30.0 °F 72% 30.10 in 10.0 mi NW 10.4 mph - N/A   Overcast
11:35 PM 38.1 °F 31.7 °F 30.2 °F 73% 30.10 in 10.0 mi NW 9.2 mph - N/A   Overcast
11:55 PM 38.1 °F 31.2 °F 30.0 °F 73% 30.11 in 10.0 mi NW 10.4 mph - N/A   Overcast